EW4504 Weather Reports


Display with metric or nautical units.
time (UTC)temp
F
wind
direction
speed
MPH
gust
MPH
rain 1hr
in
rain 24hr
in
rain mn
in
humidity
%
barometer
mb
20260505003038 72 0 0.0 4.0 0.00 0.00 0.00 40 1014.0
20260505002533 73 0 1.0 4.0 0.00 0.00 0.00 40 1014.0
20260505002030 73 0 1.0 4.0 0.00 0.00 0.00 39 1014.0
20260505001544 73 190 1.0 5.0 0.00 0.00 0.00 39 1014.0
20260505001030 73 184 2.0 8.0 0.00 0.00 0.00 39 1013.9
20260505000531 73 198 4.0 8.0 0.00 0.00 0.00 39 1013.9
20260505000047 74 190 2.0 8.0 0.00 0.00 0.00 39 1013.8
20260504235531 74 212 4.0 9.0 0.00 0.00 0.00 39 1013.8
20260504235031 74 185 4.0 10.0 0.00 0.00 0.00 39 1013.8
20260504234540 74 202 5.0 10.0 0.00 0.00 0.00 38 1013.8
20260504234031 75 196 5.0 7.0 0.00 0.00 0.00 39 1013.7
20260504233529 75 209 3.0 9.0 0.00 0.00 0.00 38 1013.8
20260504233100 75 212 3.0 10.0 0.00 0.00 0.00 38 1013.9
20260504232530 75 217 4.0 10.0 0.00 0.00 0.00 38 1013.8
20260504232029 75 202 4.0 10.0 0.00 0.00 0.00 37 1013.8
20260504231543 75 188 4.0 8.0 0.00 0.00 0.00 37 1013.8
20260504231029 75 187 4.0 8.0 0.00 0.00 0.00 38 1013.8
20260504230531 76 223 3.0 10.0 0.00 0.00 0.00 38 1013.8
20260504230054 76 242 3.0 16.0 0.00 0.00 0.00 37 1013.7
20260504225533 76 206 6.0 16.0 0.00 0.00 0.00 37 1013.7
20260504225032 76 209 5.0 12.0 0.00 0.00 0.00 38 1013.6
20260504224542 77 209 5.0 11.0 0.00 0.00 0.00 38 1013.6
20260504224032 77 252 5.0 11.0 0.00 0.00 0.00 38 1013.6
20260504223531 77 174 4.0 11.0 0.00 0.00 0.00 39 1013.7
20260504223042 77 126 2.0 6.0 0.00 0.00 0.00 38 1013.7
20260504222531 77 196 2.0 8.0 0.00 0.00 0.00 38 1013.7
20260504222029 77 131 3.0 9.0 0.00 0.00 0.00 39 1013.8
20260504221540 77 219 3.0 10.0 0.00 0.00 0.00 39 1013.8
20260504221030 78 205 2.0 10.0 0.00 0.00 0.00 39 1013.8
20260504220531 78 217 4.0 10.0 0.00 0.00 0.00 39 1013.7
20260504220039 78 200 3.0 13.0 0.00 0.00 0.00 38 1013.8
20260504215531 78 182 5.0 13.0 0.00 0.00 0.00 38 1013.7
20260504215031 78 227 2.0 11.0 0.00 0.00 0.00 38 1013.7
20260504214548 78 169 6.0 11.0 0.00 0.00 0.00 37 1013.8
20260504214032 78 231 5.0 11.0 0.00 0.00 0.00 38 1013.7
20260504213529 78 252 3.0 10.0 0.00 0.00 0.00 36 1013.8
20260504213043 78 209 6.0 10.0 0.00 0.00 0.00 36 1013.8
20260504212530 78 221 2.0 12.0 0.00 0.00 0.00 35 1013.6
20260504212031 79 190 4.0 12.0 0.00 0.00 0.00 35 1013.7
20260504211542 79 194 3.0 7.0 0.00 0.00 0.00 35 1013.7
20260504211029 79 194 3.0 7.0 0.00 0.00 0.00 35 1013.8
20260504210536 78 209 2.0 9.0 0.00 0.00 0.00 35 1013.6
20260504210045 79 91 3.0 9.0 0.00 0.00 0.00 35 1013.7
20260504205530 79 237 4.0 9.0 0.00 0.00 0.00 36 1013.8
20260504205030 79 171 3.0 10.0 0.00 0.00 0.00 36 1013.8
20260504204546 79 115 5.0 10.0 0.00 0.00 0.00 38 1013.8
20260504204031 79 242 3.0 10.0 0.00 0.00 0.00 38 1013.8
20260504203531 79 188 3.0 10.0 0.00 0.00 0.00 38 1013.9
20260504203052 78 213 3.0 9.0 0.00 0.00 0.00 36 1013.8
20260504202529 78 219 4.0 9.0 0.00 0.00 0.00 35 1013.9
20260504202029 78 184 4.0 8.0 0.00 0.00 0.00 36 1013.9
20260504201543 78 290 3.0 9.0 0.00 0.00 0.00 37 1014.0
20260504201030 78 219 3.0 9.0 0.00 0.00 0.00 38 1014.1
20260504200530 78 209 3.0 10.0 0.00 0.00 0.00 38 1014.2
20260504200042 77 204 3.0 10.0 0.00 0.00 0.00 38 1014.4
20260504195532 77 217 2.0 8.0 0.00 0.00 0.00 39 1014.4
20260504195029 78 211 3.0 8.0 0.00 0.00 0.00 38 1014.5
20260504194539 78 232 2.0 9.0 0.00 0.00 0.00 38 1014.6
20260504194031 78 290 4.0 12.0 0.00 0.00 0.00 38 1014.7
20260504193533 78 175 5.0 12.0 0.00 0.00 0.00 38 1014.8
20260504193041 78 229 4.0 9.0 0.00 0.00 0.00 39 1014.8
20260504192529 78 196 2.0 6.0 0.00 0.00 0.00 39 1014.8
20260504192029 77 98 1.0 5.0 0.00 0.00 0.00 38 1014.9
20260504191537 77 40 1.0 8.0 0.00 0.00 0.00 38 1015.1
20260504191029 77 187 2.0 10.0 0.00 0.00 0.00 39 1015.2
20260504190531 77 193 4.0 10.0 0.00 0.00 0.00 39 1015.2
20260504190050 78 315 1.0 6.0 0.00 0.00 0.00 39 1015.3
20260504185532 77 351 2.0 6.0 0.00 0.00 0.00 39 1015.3
20260504185029 77 0 1.0 6.0 0.00 0.00 0.00 41 1015.3
20260504184542 76 229 3.0 8.0 0.00 0.00 0.00 43 1015.4
20260504184030 76 300 3.0 8.0 0.00 0.00 0.00 42 1015.5
20260504183530 76 323 3.0 8.0 0.00 0.00 0.00 41 1015.5
20260504183040 76 347 2.0 8.0 0.00 0.00 0.00 42 1015.6
20260504182531 76 327 3.0 8.0 0.00 0.00 0.00 43 1015.6
20260504182033 76 32 1.0 5.0 0.00 0.00 0.00 43 1015.6
20260504181544 76 228 3.0 6.0 0.00 0.00 0.00 43 1015.7
20260504181031 75 305 3.0 6.0 0.00 0.00 0.00 45 1015.9
20260504180533 75 323 2.0 8.0 0.00 0.00 0.00 43 1015.9
20260504180041 75 296 2.0 9.0 0.00 0.00 0.00 43 1016.1
20260504175530 75 355 3.0 9.0 0.00 0.00 0.00 42 1016.2
20260504175032 75 336 2.0 8.0 0.00 0.00 0.00 42 1016.2
20260504174543 76 5 2.0 8.0 0.00 0.00 0.00 43 1016.3
20260504174030 75 213 2.0 8.0 0.00 0.00 0.00 43 1016.4
20260504173529 75 215 2.0 7.0 0.00 0.00 0.00 43 1016.4
20260504173049 75 161 3.0 7.0 0.00 0.00 0.00 43 1016.5
20260504172530 75 94 2.0 7.0 0.00 0.00 0.00 43 1016.5
20260504172031 75 205 3.0 10.0 0.00 0.00 0.00 44 1016.6
20260504171543 75 213 1.0 10.0 0.00 0.00 0.00 43 1016.6
20260504171031 75 265 3.0 10.0 0.00 0.00 0.00 44 1016.8
20260504170530 75 212 3.0 7.0 0.00 0.00 0.00 44 1016.8
20260504151029 69 281 4.0 11.0 0.00 0.00 0.00 52 1017.8
20260504150534 68 229 2.0 7.0 0.00 0.00 0.00 51 1017.7
20260504141030 62 265 0.0 3.0 0.00 0.00 0.00 69 1017.9
20260504140534 61 0 1.0 3.0 0.00 0.00 0.00 70 1018.0
20260504130531 53 0 0.0 2.0 0.00 0.00 0.00 80 1018.0
20260504110529 43 0 0.0 0.0 0.00 0.00 0.00 87 1017.6
20260504100529 44 0 0.0 0.0 0.00 0.00 0.00 86 1017.6
20260504081545 45 0 0.0 0.0 0.00 0.00 0.00 85 1017.3
20260504081029 45 0 0.0 0.0 0.00 0.00 0.00 84 1017.3
20260504080529 45 0 0.0 0.0 0.00 0.00 0.00 84 1017.4
20260504050530 50 0 0.0 0.0 0.00 0.00 0.00 75 1018.1
20260504045530 50 0 0.0 0.0 0.00 0.00 0.00 74 1018.1
20260504045029 51 0 0.0 1.0 0.00 0.00 0.00 74 1018.2
20260504044545 51 0 0.0 1.0 0.00 0.00 0.00 73 1018.1
20260504044032 51 0 0.0 1.0 0.00 0.00 0.00 73 1018.1
20260504043531 51 0 0.0 0.0 0.00 0.00 0.00 73 1018.0
20260504043042 51 0 0.0 2.0 0.00 0.00 0.00 73 1018.1
20260504042530 51 0 0.0 2.0 0.00 0.00 0.00 73 1018.1
20260504042030 51 0 0.0 2.0 0.00 0.00 0.00 72 1018.2
20260504041541 52 0 0.0 1.0 0.00 0.00 0.00 72 1018.3
20260504041029 52 0 0.0 1.0 0.00 0.00 0.00 73 1018.2
20260504040530 52 0 0.0 1.0 0.00 0.00 0.00 72 1018.1
20260504040044 52 0 0.0 1.0 0.00 0.00 0.00 72 1018.1
20260504035530 52 0 0.0 0.0 0.00 0.00 0.00 71 1018.3
20260504035030 52 0 0.0 1.0 0.00 0.00 0.00 71 1018.2
20260504034536 52 0 0.0 1.0 0.00 0.00 0.00 71 1018.3
20260504034033 52 261 0.0 1.0 0.00 0.00 0.00 71 1018.2
20260504033530 53 0 0.0 2.0 0.00 0.00 0.00 70 1018.2
20260504033043 53 0 0.0 2.0 0.00 0.00 0.00 70 1018.2
20260504032530 53 0 0.0 2.0 0.00 0.00 0.00 69 1018.3
20260504032033 54 262 0.0 1.0 0.00 0.00 0.00 68 1018.3
20260504031546 54 0 0.0 0.0 0.00 0.00 0.00 67 1018.3
20260504031032 54 0 0.0 0.0 0.00 0.00 0.00 67 1018.2
20260504030530 54 0 0.0 0.0 0.00 0.00 0.00 67 1018.3
20260504030045 55 0 0.0 1.0 0.00 0.00 0.00 66 1018.3
20260504025530 55 0 0.0 1.0 0.00 0.00 0.00 66 1018.3
20260504025029 55 0 0.0 1.0 0.00 0.00 0.00 65 1018.3
20260504024537 55 0 0.0 0.0 0.00 0.00 0.00 64 1018.3
20260504024032 56 0 0.0 0.0 0.00 0.00 0.00 63 1018.2
20260504023530 56 0 0.0 0.0 0.00 0.00 0.00 62 1018.1
20260504023038 56 0 0.0 0.0 0.00 0.00 0.00 61 1018.1
20260504022531 57 0 0.0 0.0 0.00 0.00 0.00 60 1018.2
20260504022030 57 0 0.0 0.0 0.00 0.00 0.00 58 1018.1
20260504021544 58 0 0.0 0.0 0.00 0.00 0.00 58 1017.9
20260504021029 58 0 0.0 1.0 0.00 0.00 0.00 57 1017.9
20260504020531 58 0 0.0 1.0 0.00 0.00 0.00 57 1017.9
20260504020042 59 0 0.0 2.0 0.00 0.00 0.00 56 1017.8
20260504015530 59 0 0.0 3.0 0.00 0.00 0.00 55 1017.7
20260504015036 59 0 1.0 3.0 0.00 0.00 0.00 54 1017.6
20260504014553 60 0 0.0 3.0 0.00 0.00 0.00 54 1017.5
20260504014032 60 0 0.0 3.0 0.00 0.00 0.00 54 1017.5
20260504013533 60 264 0.0 3.0 0.00 0.00 0.00 54 1017.4
20260504013043 61 264 0.0 3.0 0.00 0.00 0.00 53 1017.4
20260504012532 61 264 2.0 3.0 0.00 0.00 0.00 52 1017.4
20260504012030 61 267 0.0 2.0 0.00 0.00 0.00 52 1017.4
20260504011539 61 267 1.0 2.0 0.00 0.00 0.00 51 1017.3
20260504011030 62 0 0.0 2.0 0.00 0.00 0.00 50 1017.3
20260504010530 62 0 0.0 2.0 0.00 0.00 0.00 50 1017.3
20260504010051 62 0 0.0 2.0 0.00 0.00 0.00 49 1017.3
20260504005533 62 0 0.0 3.0 0.00 0.00 0.00 48 1017.3
20260504005033 63 267 1.0 3.0 0.00 0.00 0.00 48 1017.2
20260504004543 63 267 0.0 4.0 0.00 0.00 0.00 47 1017.1
20260504004029 63 0 0.0 4.0 0.00 0.00 0.00 46 1017.1
20260504003530 64 267 1.0 4.0 0.00 0.00 0.00 46 1017.0